Simultaneous Nadir Overpasses (SNOs) Predictions

Prediction of SNOs between METOP-B and NOAA-19 Satellite Orbit:

Table of predicted SNOs for the next 14.0 days since TLE Epoch: 3/17/2018
Index Date (METOP-B) Time (METOP-B) Lat,Lon (METOP-B) SZA (METOP-B ) Date (NOAA-19) Time (NOAA-19) Lat,Lon (NOAA-19) SZA (NOAA-19 ) Distance(km) Time Diff (sec)
1 03/22/2018 15:40:27 78.14, -46.35 77.38 03/22/2018 15:39:24 78.11, -46.34 77.34 3.51 63
2 03/22/2018 16:31:09 -78.10, 120.78 102.68 03/22/2018 16:30:20 -78.11, 120.90 102.67 3.12 49
3 03/22/2018 17:21:49 78.12, -71.78 77.33 03/22/2018 17:21:25 78.10, -71.79 77.31 2.63 24
4 03/22/2018 18:12:30 -78.12, 95.56 102.69 03/22/2018 18:12:21 -78.10, 95.45 102.71 3.23 9
5 03/22/2018 19:03:11 78.10, -97.21 77.28 03/22/2018 19:03:26 78.09, -97.23 77.27 1.77 15
6 03/22/2018 19:53:52 -78.10, 70.12 102.73 03/22/2018 19:54:22 -78.09, 70.00 102.74 3.03 30
7 03/22/2018 20:44:33 78.08,-122.65 77.24 03/22/2018 20:45:27 78.08,-122.68 77.23 1.06 54
8 03/22/2018 21:35:14 -78.09, 44.69 102.78 03/22/2018 21:36:23 -78.08, 44.55 102.78 3.14 69




NCC Satellite Simultaneous Nadir Overpasses (SNOs) Prediction Service
